Powrót do katalogu

GAOFEN 12

AktywnyNaukaSSO
NORAD 44819·PAYLOAD·🇨🇳 China

Wystrzelony Nov 27, 2019 z Taiyuan Satellite Launch Center

Loading…

Następne Przeloty (najbliższe 24 godziny)

TLE

ŚwieżeSource: Space-Track

Epoka: Sep 14, 2026, 15:09 UTC

1 44819U 19082A   26257.63179674  .00000261  00000-0  40697-4 0  9990
2 44819  97.8148 261.6718 0002460  95.4230 264.7263 14.80518209367320

Śledź GAOFEN 12 w czasie rzeczywistym z AllMySat

Download on the App Store